Location: Four Corners
(38.2757°N, 122.4608°W)
Time: 13:58:34
(UTC+00:00)

Hubble Space Telescope - Visible Passes

Search period start: 28 February 2021 00:00
Search period end: 10 March 2021 00:00
Orbit: 536 x 539 km, 28.5° (Epoch: 28 February)

Date Brightness Start Highest point End Pass type
(mag) Time Alt. Az. Time Alt. Az. Time Alt. Az.
06 Mar 3.1 02:42:22 10° S 02:43:41 11° SSE 02:45:00 10° SE visible
06 Mar 3.3 04:21:09 10° SW 04:21:59 14° SSW 04:21:59 14° SSW visible
07 Mar 2.9 04:10:08 10° SW 04:11:51 17° SSW 04:11:51 17° SSW visible
08 Mar 2.6 03:59:08 10° SW 04:01:42 20° S 04:01:42 20° S visible
09 Mar 2.5 03:48:12 10° SW 03:51:17 21° S 03:51:31 20° S visible
